Location: Klein M�hlingen
(51.9472°N, 11.7453°E)
Time: 22:20:29
(UTC+00:00)

Cosmos 2333 Rocket - Pass Details

Date: 09 April 2020
Orbit: 841 x 860 km, 70.8° (Epoch: 28 May)

Event Time Altitude Azimuth Distance (km) Brightness Sun altitude
Rises 23:34:49 0° 329° (NNW) 3,409 6.1 -29.9°
Reaches altitude 10° 23:37:17 10° 330° (NNW) 2,471 5.2 -29.8°
Enters shadow 23:42:31 73° 8° (N) 883 2.3 -29.7°
